Location: Seven Kings
(51.5667°N, 0.1000°E)
Time: 03:12:44
(UTC+00:00)

CZ-4 R/B - Pass Details

Date: 29 October 2020
Orbit: 532 x 598 km, 97.7° (Epoch: 27 November)

Event Time Altitude Azimuth Distance (km) Brightness Sun altitude
Rises 19:00:13 0° 186° (S) 2,693 4.9 -22.7°
Reaches altitude 10° 19:02:28 10° 196° (SSW) 1,798 4.0 -23.0°
Maximum altitude 19:06:03 35° 263° (W) 884 2.9 -23.6°
Drops below altitude 10° 19:09:37 10° 330° (NNW) 1,797 4.4 -24.1°
Sets 19:11:53 0° 340° (NNW) 2,692 5.2 -24.5°
